Location: Gradaro
(45.0833°N, 10.8833°E)
Time: 10:31:53
(UTC+00:00)

FENGYUN 1C DEB - Pass Details

Date: 26 June 2021
Orbit: 803 x 830 km, 98.8° (Epoch: 28 July)

Event Time Altitude Azimuth Distance (km) Brightness Sun altitude
Exits shadow 22:36:37 19° 230° (SW) 1,854 ? -20.9°
Maximum altitude 22:38:55 25° 266° (W) 1,591 ? -21.0°
Drops below altitude 10° 22:43:16 10° 321° (NW) 2,414 ? -21.1°
Sets 22:46:03 0° 335° (NNW) 3,356 ? -21.2°
